User: anonymous   Login
Location: Unspecified
(0.0000°N, 0.0000°E)
Time: 17:23:33
(UTC+00:00)
Language:

AAUSAT3 - Orbit

View from above orbital plane
View from above orbital plane
View from above satellite
View from above satellite

Ground track
Ground track

The orbit data is extracted from the following two-line orbital elements,

1 39087U 13009B   18116.38853650  .00000103  00000-0  50941-4 0  9992
2 39087  98.5251 323.4854 0013784  91.0921 269.1841 14.35612057270456
Epoch (UTC): 26 April 2018 09:19:29
Eccentricity: 0.0013784
inclination: 98.5251°
perigee height: 763 km
apogee height: 783 km
right ascension of ascending node: 323.4854°
argument of perigee: 91.0921°
revolutions per day: 14.35612057
mean anomaly at epoch: 269.1841°
orbit number at epoch: 27045

The dashed part of the orbit path shows where the satellite is in the earth's shadow,  

DLR